This is the latest recevied weather packets stored in our database for station/object N0NB. If no packets are shown the sender has not sent any weather packets the latest 10 day(s).
| Time | Temp. | Humidity | Pressure | Rain* | Wind** | Luminosity | Snow |
|---|---|---|---|---|---|---|---|
| 1778101217 | 16.67° C | 29% | 1017 hPa | 0 mm | - | 851 W/m² | - |
| 1778100617 | 16.11° C | 30% | 1017.3 hPa | 0 mm | - | 916 W/m² | - |
| 1778100017 | 15.56° C | 31% | 1017.3 hPa | 0 mm | - | 958 W/m² | - |
| 1778099417 | 16.11° C | 31% | 1017.5 hPa | 0 mm | - | 915 W/m² | - |
| 1778098816 | 15° C | 34% | 1017.5 hPa | 0 mm | - | 960 W/m² | - |
| 1778098216 | 15.56° C | 30% | 1017.8 hPa | 0 mm | - | 838 W/m² | - |
| 1778097617 | 15° C | 31% | 1017.8 hPa | 0 mm | - | 1004 W/m² | - |
| 1778097017 | 15° C | 34% | 1018 hPa | 0 mm | - | 268 W/m² | - |
| 1778096416 | 14.44° C | 34% | 1018 hPa | 0 mm | - | 283 W/m² | - |
| 1778095816 | 15° C | 33% | 1018.1 hPa | 0 mm | - | 992 W/m² | - |
| 1778095217 | 14.44° C | 34% | 1018.2 hPa | 0 mm | - | 816 W/m² | - |
| 1778094616 | 14.44° C | 33% | 1018.1 hPa | 0 mm | - | 559 W/m² | - |
| 1778094016 | 14.44° C | 32% | 1018.2 hPa | 0 mm | - | 635 W/m² | - |
| 1778093416 | 14.44° C | 32% | 1018.3 hPa | 0 mm | - | 841 W/m² | - |
| 1778092816 | 13.89° C | 35% | 1018.5 hPa | 0 mm | - | 598 W/m² | - |
| 1778092216 | 13.89° C | 33% | 1018.3 hPa | 0 mm | - | 557 W/m² | - |
| 1778091616 | 13.89° C | 32% | 1018.3 hPa | 0 mm | - | 628 W/m² | - |
| 1778091016 | 13.89° C | 32% | 1018.3 hPa | 0 mm | - | 520 W/m² | - |
| 1778090416 | 14.44° C | 35% | 1018.4 hPa | 0 mm | - | 927 W/m² | - |
| 1778089816 | 13.89° C | 33% | 1018.6 hPa | 0 mm | - | 878 W/m² | - |
| 1778089216 | 13.33° C | 35% | 1018.5 hPa | 0 mm | - | 698 W/m² | - |
| 1778088616 | 13.89° C | 40% | 1018.7 hPa | 0 mm | - | 693 W/m² | - |
| 1778088016 | 13.33° C | 38% | 1018.7 hPa | 0 mm | - | 653 W/m² | - |
| 1778087416 | 13.33° C | 37% | 1018.9 hPa | 0 mm | - | 798 W/m² | - |
| 1778086816 | 13.33° C | 36% | 1018.9 hPa | 0 mm | - | 792 W/m² | - |
* Rain latest hour (hover to see other rain measurements)
** Current wind speed in m/s (hover to see current wind gust speed)